Location: Unspecified
(0.0000°N, 1.0000°E)
Time: 23:56:04
(UTC+01:00)

X-37B - Pass Details

Date: 01 October 2020
Orbit: 382 x 392 km, 45.0° (Epoch: 15 October)

Event Time Altitude Azimuth Distance (km) Brightness Sun altitude
Exits shadow 05:44:15 11° 84° (E) 1,320 4.1 -30.3°
Drops below altitude 10° 05:44:33 10° 88° (E) 1,395 4.3 -30.2°
Sets 05:47:09 0° 111° (ESE) 2,253 5.5 -29.6°
